Regional Weather Roundup
Issued by NWS San Diego, CA

Home | Current Version | Previous Version | Text Only | Print | Product List | Glossary On
Versions: 1 2 3 4 5 6 7 8 9 10 11 12 13 14 15 16 17 18 19 20 21 22 23 24 25 26 27 28 29 30 31 32 33 34 35 36 37 38 39 40 41 42 43 44 45 46 47 48 49 50
000
ASUS46 KSGX 270311
RWRSGX

SAN DIEGO HOURLY WEATHER ROUNDUP
NATIONAL WEATHER SERVICE SAN DIEGO CA
800 PM PDT SUN MAR 26 2017

NOTE: "FAIR" INDICATES FEW OR NO CLOUDS BELOW 12,000 FEET WITH NO
SIGNIFICANT WEATHER AND/OR OBSTRUCTIONS TO VISIBILITY.

CAZ042-043-060-061-PZZ750-775-270400-

GREATER SAN DIEGO AREA

CITY           SKY/WX    TMP DP  RH WIND       PRES   REMARKS
SAN DIEGO AP   PTCLDY    61  51  70 W6        30.05R
NATIONAL CITY    N/A     61  55  80 CALM      30.04R
CHULA VISTA      N/A     60  55  83 W3        29.97R
IMPERIAL BEACH CLEAR     59  52  77 NW6       30.05R
BROWN FIELD    CLEAR     56  53  90 W6        30.03S
MIRAMAR MCAS   PTCLDY    60  52  74 W5        30.04R
MONTGOMERY FLD CLEAR     59  51  75 W6        30.04R

$$

NORTH SAN DIEGO COUNTY

CITY           SKY/WX    TMP DP  RH WIND       PRES   REMARKS
CAMP PENDLETON MOCLDY    58  55  90 SW3       30.03R
OCEANSIDE AP   PTCLDY    59  55  87 W6        30.03R
OCEANSIDE HBR    N/A     59  55  87 NW2       30.06R
VISTA            N/A     58  53  83 CALM      30.02R
CARLSBAD       PTCLDY    59  54  83 W3        30.03R
DEL MAR          N/A     58  54  85 CALM      30.06R
LA JOLLA SCRIP   N/A     59  55  87 CALM      30.04R
FALLBROOK        N/A     57  56  95 CALM      30.02R
ESCONDIDO        N/A     59  53  80 SW5       30.05R
SAN MARCOS       N/A     58  52  80 CALM      30.05R
POWAY            N/A     58  52  79 CALM      30.05S

$$

EAST SAN DIEGO COUNTY

CITY           SKY/WX    TMP DP  RH WIND       PRES   REMARKS
RAMONA         CLEAR     53  51  93 W5        30.03S
SANTEE LAKES     N/A     59  53  80 W1        30.03R
LA MESA          N/A     59  52  79 W3        29.97R
JAMUL            N/A     56  51  84 CALM      30.04R
DESCANSO N       N/A     50  47  90 CALM      29.99R
CAMPO            N/A     52  50  93 SW9       30.00R

$$

ORANGE COUNTY AND THE LOS ANGELES BASIN

CITY           SKY/WX    TMP DP  RH WIND       PRES   REMARKS
JOHN WAYNE AP  PTCLDY    61  55  81 VRB5      30.03R
LAGUNA BEACH     N/A    N/A N/A N/A CALM      29.98R
LAKE FOREST FR   N/A     58  50  75 CALM      29.93R
HUNTINGTON BCH   N/A     60  56  87 W5        30.04R
LOS ALAMITOS   FAIR      58  53  83 W6        30.02R
FULLERTON      CLEAR     62  53  72 VRB6      30.01R
LONG BEACH     PTCLDY    61  51  70 NW8       30.02R
L.A. AP        PTCLDY    59  54  83 SW9       30.02S
L.A. DOWNTOWN  PTCLDY    61  52  72 VRB3      30.02R

$$

THE INLAND EMPIRE

CITY           SKY/WX    TMP DP  RH WIND       PRES   REMARKS
CORONA         CLEAR     61  51  70 W7        30.01S
CHINO          MOCLDY    60  52  74 W7        30.02R
ONTARIO        MOCLDY    61  51  70 W7        30.01R
SAN BERNARDINO PTCLDY    63  50  63 W9        30.01R HAZE
RIVERSIDE AP   CLEAR     60  52  74 W9        30.01R
MORENO VALLEY    N/A     59  54  84 NW5       28.13R
MARCH ARB      CLEAR     56  52  85 NW7       30.00S
HORSETHIEF CYN   N/A     59  46  63 NW3       30.02S
PERRIS           N/A     59  52  77 W3        30.01R
HEMET EAST       N/A     58  49  72 CALM      30.05S
FRENCH VALLEY  FAIR      57  50  77 S7        30.03R
TEMECULA         N/A     58  54  85 SW2       30.07R

$$

SAN BERNARDINO AND RIVERSIDE COUNTY MOUNTAINS

CITY           SKY/WX    TMP DP  RH WIND       PRES   REMARKS
BIG BEAR AP    PTCLDY    43  32  65 CALM      30.08S
PINE COVE        N/A     41  40  97 NW1       30.02S

$$

SOUTHERN DESERT INCLUDING THE COACHELLA VALLEY

CITY           SKY/WX    TMP DP  RH WIND       PRES   REMARKS
PALM SPRINGS   CLEAR     73  46  38 NW20      29.89S
PALM DESERT      N/A     74  47  38 N2        29.78S
THERMAL        CLEAR     75  45  34 NW9       29.85S
BLYTHE         CLEAR     76  35  22 SE5       29.86S
IMPERIAL AP    CLEAR     72  47  40 W14       29.86R
EL CENTRO NAS  CLEAR     73  42  32 W17       29.89R
YUMA AZ        CLEAR     75  38  26 S5        29.87
MEXICALI       CLEAR     77  37  24 W3        29.88R

$$

UPPER DESERT

CITY           SKY/WX    TMP DP  RH WIND       PRES   REMARKS
VICTORVILLE AP PTCLDY    57  37  47 W17       29.99S
HESPERIA         N/A     56  42  60 W3        30.11R
PALMDALE       PTCLDY    58  44  60 W6        30.01R
LANCASTER      PTCLDY    56  39  53 W24       30.00R
EDWARDS AFB    PTCLDY    58  37  45 W21       29.95R
DAGGETT        MOCLDY    64  41  42 W15       29.91R
29 PALMS N     CLEAR     68  36  30 SW13      29.97S
NEEDLES        PTCLDY    76  30  18 W7        29.87R

$$

REGIONAL REPORTS

CITY           SKY/WX    TMP DP  RH WIND       PRES   REMARKS
SANTA BARBARA  PTCLDY    58  52  80 SW5       30.00R
SANDBERG       PTCLDY    47  41  80 NW21G26   30.08R
LAS VEGAS NV   MOCLDY    71  24  17 SW8       29.86S
PHOENIX AZ     MOCLDY    77  28  16 NW6       29.88R
TIJUANA        PTCLDY    57  50  77 W6        30.06S
ENSENADA NW      N/A     59  32  35 NW6       30.01S

$$

OFFSHORE ISLANDS

CITY           SKY/WX    TMP DP  RH WIND       PRES   REMARKS
CATALINA ARPT  CLOUDY    52  51  97 W9        30.04R FOG
SAN NICOLAS IS PTCLDY   N/A N/A N/A NW25G33   30.05F

$$

MARINE AND OFFSHORE BUOY REPORTS

STATION/POSITION SKY/WX   TEMP    WIND        PRES    VSBY  SWELL
                          AIR SEA DIR/SP/G                  HT/PER/DIR
                          (F)     (DEG/KT/KT) (MB)    (MI)  (FT/S/D)
TANNER BANKS               58 60  310/ 19/ 23 1018.1R         7/310/14
S CLEMENTE BASIN           58 60  300/ 16/ 17 1017.3R         5/280/12
SAN NICOLAS IS.               57                N/A           5/290/11
SO. S. ROSA ISLA           56 57  290/ 21/ 27 1017.4S         7/290/14
W. S. BARBARA CH           56 56  320/ 17/ 19 1018.3R         7/270/14
M. S. BARBARA CH                                N/A           5/260/13
S. MONICA BASIN            59 61  270/  6/  6 1016.4F         3/240/14
S PEDRO CHANNEL               61                N/A           3/270/13
CMP PENDLETON NS              61                N/A           2/240/13
OCEANSIDE OFFSHR              62                N/A           2/260/13
TORREY PINES OTR              62                N/A           3/270/14
POINT LOMA SOUTH              63                N/A           3/270/13

$$




USA.gov is the U.S. government's official web portal to all federal, state and local government web resources and services.